Location: ?????oe
(44.4874°N, 135.7046°E)
Time: 23:03:07
(UTC+00:00)

Helios 1A Rocket - Pass Details

Date: 13 December 2025
Orbit: 432 x 442 km, 98.3° (Epoch: 19 January)

Event Time Altitude Azimuth Distance (km) Brightness Sun altitude
Rises 20:31:35 0° 167° (SSE) 2,403 6.5 -19.5°
Reaches altitude 10° 20:33:34 10° 168° (SSE) 1,543 5.4 -19.1°
Maximum altitude 20:36:53 83° 257° (WSW) 449 2.2 -18.6°
Enters shadow 20:37:53 42° 340° (NNW) 640 2.8 -18.4°
